Other Public Products
Issued by NWS Grand Forks, ND

Home | Current Version | Previous Version | Text Only | Print | Product List | Glossary On
Versions: 1 2 3 4 5 6 7 8 9 10 11 12 13 14 15 16 17 18 19 20 21 22 23 24 25 26 27 28 29 30 31 32 33 34 35 36 37 38 39 40 41 42 43 44 45 46 47 48 49 50
000
FPUS83 KFGF 171031
OPUFGF
PRAIRIE TO PINES WEATHER ROUNDUP
NATIONAL WEATHER SERVICE EASTERN NORTH DAKOTA/GRAND FORKS ND
400 AM CST WED JAN 17 2018

 **SATELLITE DATA USED TO AUGMENT SKY COVER AT AUTOMATED STATIONS**
 *****  WEATHER ACROSS EASTERN NORTH DAKOTA  *****

CITY           SKY/WX    TMP DP  RH WIND       PRES   REMARKS
GRAND FORKS    FAIR       7  -1  70 S17       30.11F WCI -12
GRND FORKS AFB FAIR       8  -1  66 S16       30.08F WCI -10
GRND FORKS NWS   N/A      5 N/A N/A S23         N/A  WCI -17
BUXTON           N/A      5   3  94 S14         N/A  WCI -13
DEVILS LAKE    FAIR      10   2  69 SW12      30.06F WCI  -5
FARGO          FAIR       5  -2  72 S15       30.24F WCI -13
WAHPETON ARPT  FAIR       1  -4  78 SE9       30.28F WCI -14
$$

 *****  WEATHER ACROSS CENTRAL AND WESTERN NORTH DAKOTA  *****

CITY           SKY/WX    TMP DP  RH WIND       PRES   REMARKS
JAMESTOWN      FAIR       2  -2  83 S8        30.14F WCI -12
BISMARCK       FAIR       0  -5  79 CALM      30.16F
MINOT          FAIR      18   4  54 SW15      30.02R WCI   4
MINOT AFB      FAIR      17   5  60 SW16      29.99F WCI   2
GARRISON         N/A      4  -2  76 SW6       30.08S WCI  -7
WILLISTON      FAIR       9   1  70 SW10      30.10S WCI  -5
DICKINSON      FAIR      19   8  62 W14       30.08S WCI   6
HETTINGER      FAIR       4  -4  69 NW10      30.15R WCI -11
$$

 *****  OTHER OBSERVATIONS NORTHEAST NORTH DAKOTA  *****

CITY           SKY/WX    TMP DP  RH WIND       PRES   REMARKS
WALHALLA       FAIR      19   1  45 SW14G21   29.96F WCI   6
LANGDON        FAIR       7   1  78 SW22      29.97F WCI -14
CAVALIER         N/A     14   1  57 S13       29.99F WCI   0
GRAFTON        FAIR       7   0  72 S14       30.07F WCI -10
CANDO          FAIR       7   0  72 SW10      30.04F WCI  -8
FORT TOTTEN      N/A     11   0  60 S8        29.95S WCI  -1
ROLLA          FAIR      10   1  67 SW28      29.92F WCI -11
RUGBY          FAIR       3  -2  78 SW8       30.04F WCI -10
 ***** THE ABOVE OBSERVATIONS ARE NON NWS ARE NOT QUALITY
        CONTROLLED AND MAY MIS-REPORT RAIN FOR SNOW...
$$

 *****  OTHER OBSERVATIONS SOUTHEAST NORTH DAKOTA *****

CITY           SKY/WX    TMP DP  RH WIND       PRES   REMARKS
COOPERSTOWN    FAIR       5   0  78 SW13      30.11F WCI -12
VALLEY CITY    FAIR       3  -2  78 SW17      30.16F WCI -17
OAKES            N/A      1  -4  78 S17       30.23F WCI -19
GWINNER          N/A      5   0  78 SW18      30.22F WCI -15
SHEYENNE NWR     N/A      6  -2  71 SW10      29.95S WCI  -9
BUFFALO          N/A      5  -3  68 E18         N/A  WCI -14
WYNDMERE       NOT AVBL
 ***** THE ABOVE OBSERVATIONS ARE NON NWS ARE NOT QUALITY
       CONTROLLED AND MAY MIS-REPORT RAIN FOR SNOW...
$$

  *****  WEATHER ACROSS NORTHERN MINNESOTA  *****

CITY           SKY/WX    TMP DP  RH WIND       PRES   REMARKS
FLAG ISLAND    FAIR       9   0  66 S10G17    29.96F WCI  -6
WARROAD        FAIR       9   1  72 SW15G25   30.01F WCI  -8
ROSEAU         FAIR      10   1  67 S13       30.03F WCI  -5
HALLOCK        FAIR       5   0  78 S22       30.03F WCI -16
THF RVR FALLS  FAIR       5  -1  76 SW21G28   30.12F WCI -16
HALSTAD        NOT AVBL
FOSSTON        FAIR       3  -2  78 S21       30.15F WCI -18
BAUDETTE       FAIR       9  -1  64 SW13G22   30.03F WCI  -7
WASKISH        FAIR      10   0  61 SW10      30.09F WCI  -3
CROOKSTON      FAIR       7   0  72 S24G30    30.15F HAZE    WCI -15
$$
  *****  WEATHER ACROSS CENTRAL AND WEST MINNESOTA  *****

CITY           SKY/WX    TMP DP  RH WIND       PRES   REMARKS
BEMIDJI        FAIR       8  -2  62 SW9       30.14F WCI  -5
PARK RAPIDS    FAIR       2  -5  72 SW9       30.20F WCI -13
WADENA         FAIR       0  -6  78 SW5       30.24F WCI -10
DETROIT LAKES  FAIR       5  -2  72 S5        30.23F WCI  -4
MOORHEAD       FAIR       1  -6  71 CALM      30.25F
FERGUS FALLS   FAIR       1  -4  78 S10       30.32F WCI -14
ELBOW LAKE     FAIR       1  -4  80 S10       30.28F HAZE    WCI -16
MORRIS MN      FAIR       0  -6  78 SE8       30.29F WCI -15
STAPLES        FAIR       1  -6  71 SW7       30.25F WCI -11
WHEATON        FAIR       0  -6  78 SE9       30.30F WCI -16
$$
  *****  WEATHER ELSEWHERE ACROSS MINNESOTA  *****

CITY           SKY/WX    TMP DP  RH WIND       PRES   REMARKS
DULUTH         FAIR       3  -3  76 W16       30.19F WCI -16
INTRNTL FALLS  FAIR      11  -2  56 SW14G23   30.06F WCI  -5
ELY            FAIR       5  -2  72 SW12G20   30.09F WCI -11
CLOQUET        FAIR       1  -6  71 SW8       30.22F WCI -12
BRAINERD       FAIR       2  -5  72 S9        30.27F WCI -13
HIBBING        FAIR       3  -3  76 SW7       30.17F WCI  -9
ALEXANDRIA     FAIR       3  -3  76 SW9       30.28F WCI -12
SAINT CLOUD    FAIR      -2  -6  83 S7        30.34F WCI -15
MINNEAPOLIS    FAIR       0  -4  83 S3        30.43F
$$

  *****  WEATHER ACROSS SOUTH DAKOTA  *****

CITY           SKY/WX    TMP DP  RH WIND       PRES   REMARKS
SIOUX FALLS    FAIR       7   1  76 S10       30.39F WCI  -8
BROOKINGS      FAIR       3  -2  79 S13       30.33F WCI -14
WATERTOWN      FAIR       4  -1  80 S10       30.29F WCI -11
HURON          FAIR       4  -2  76 S13       30.32F WCI -13
SISSETON         N/A     16   1  51 S5        30.25F WCI   9
ABERDEEN       FAIR       2  -3  80 S9        30.30F WCI -13
MITCHELL       FAIR       4  -2  76 SE7       30.37F WCI  -8
PIERRE         FAIR       3  -1  83 CALM      30.23F
MOBRIDGE       FAIR       4  -1  80 S5        30.19F WCI  -5
RAPID CITY     FAIR      17   0  47 E3        30.15R
$$

  *****  SOME WEATHER IN NEARBY STATES *****

CITY           SKY/WX    TMP DP  RH WIND       PRES   REMARKS
GLASGOW MT     FAIR      -3  -9  75 N6        30.15R WCI -15
GREAT FALLS MT FAIR      34  22  61 SW15      30.22R WCI  24
CHEYENNE WY    FAIR      17   1  49 CALM      30.19R
SCOTTSBLUFF NE FAIR       5   1  83 NW9       30.24S WCI  -9
OMAHA NE       FAIR       1  -3  83 S9        30.59F WCI -14
DES MOINES IA  FAIR      -2  -7  79 SW3       30.59F
DAVENPORT IA   FAIR      -1  -6  79 W7        30.61S WCI -14
CHICAGO IL     FAIR       8   3  80 W8        30.52F WCI  -4
EAU CLAIRE WI  FAIR      -3  -6  87 SW8       30.43F WCI -18
LA CROSSE WI   FAIR      -3  -7  82 S7        30.52F WCI -16
$$

  *****  SOME NATIONAL WEATHER *****

CITY           SKY/WX    TMP DP  RH WIND       PRES   REMARKS
LA GUARDIA NY  CLOUDY    35  33  92 NE7       30.25F
RALEIGH NC     FLURRIES  36  26  67 CALM      30.26F
ATLANTA GA     LGT SNOW  18  15  88 NW17      30.33F VSB 3/4 WCI   3
NEW ORLEANS LA FAIR      23  14  68 N16G23    30.58R WCI  10
OKLAHOMA CITY  FAIR       4  -1  80 SW3       30.69S
ALBUQUERQUE NM FAIR      19  13  77 CALM      30.39F
SALT LAKE CITY FAIR      35  28  75 S5        30.35S
LOS ANGELES CA FAIR      57  56  96 VRB6      30.12F
BOISE ID       FOG       32  32 100 SE3       30.38R VSB 1/4
SEATTLE WA     CLOUDY    47  35  63 E9        30.08F
$$

*** WEATHER ACROSS MANITOBA...SASKATCHEWAN AND ONTARIO ***
                ***ONTARIO***

CITY           SKY/WX    TMP DP  RH WIND       PRES   REMARKS
GERALDTON      FLURRIES  14   3  62 SW17G25   29.81S WCI  -3
THUNDER BAY    CLOUDY    16   3  57 W13       30.04F WCI   2
SIOUX LOOKOUT  CLOUDY     9  -2  61 SW12      29.88F WCI  -6
TORONTO        MOCLDY    10   5  79 W8        30.35S WCI  -1
BIG TROUT LK   FLURRIES  14   7  73 NW14G20   29.65S WCI  -1
PICKLE LAKE    NOT AVBL
DRYDEN         MOCLDY     9   0  66 SW16      29.90F WCI  -9
KENORA         MOCLDY     7   0  72 SW14      29.92F WCI -10
$$
                *** MANITOBA***

CITY           SKY/WX    TMP DP  RH WIND       PRES   REMARKS
BRANDON        CLEAR     10   0  61 W18       29.92F WCI  -8
DAUPHIN        CLEAR     19   7  58 W22G28    29.80F WCI   3
ISLAND LAKE    CLEAR      5  -2  72 SW5       29.72S WCI  -4
PILOT MOUND      N/A      7   0  72 SW14        N/A  WCI -10
THE PAS        CLEAR      1  -6  71 CALM      29.74S
THOMPSON       CLEAR     -2  -6  84 W3        29.71R
WINNIPEG       CLEAR      7  -2  66 S20G25    29.93F WCI -13
LYNN LAKE      MOCLDY     1   0  92 NE8       29.71R WCI -12
CHURCHILL      FLURRIES  10   7  85 NE16      29.80R WCI  -7
GILLAM         FLURRIES  12  10  92 N6        29.72R WCI   3
$$
                ***SASKATCHEWAN***

CITY           SKY/WX    TMP DP  RH WIND       PRES   REMARKS
ESTEVAN        PTCLDY     7   0  72 SW10      30.00S WCI  -8
KINDERSLEY     CLEAR     34  23  64 W25G32    29.86R WCI  21
LLOYDMINSTER   CLEAR     18  14  86 W15       29.72S WCI   3
PRINCE ALBERT  CLEAR     -4  -9  77 VRB2      29.76S
REGINA         CLEAR     19  14  79 SW14      29.91S WCI   6
YORKTON        CLEAR     12   5  73 S10       29.83F WC



USA.gov is the U.S. government's official web portal to all federal, state and local government web resources and services.